Wind_Speed
15 12 12 14 12 6 4 8 11 8 7 5 3 4 4 4 5 4 4 4 3 4 5 8 13 16 15 13 16 17 19 29 37 36 35 37 38 39 40 40 42 41 40 43 48 49 49 50 49 49 49 48 48 47 46 45 44 43 43 43 42 42 42
19 18 13 15 16 10 4 6 7 2 2 4 3 3 4 4 6 4 5 7 5 5 5 6 12 15 16 15 14 14 15 22 30 34 38 39 38 40 42 43 44 43 41 41 46 48 49 49 50 49 49 48 47 47 46 45 44 44 44 43 43 43 42
17 18 13 11 14 15 9 5 3 4 4 5 4 4 4 5 6 4 5 8 6 6 4 6 12 13 14 15 15 16 15 15 23 32 39 42 41 41 42 44 45 45 44 44 45 47 48 48 48 48 48 48 48 47 46 45 45 45 44 44 44 43 43
14 12 10 8 8 11 11 8 5 5 5 5 6 5 3 4 5 4 5 7 5 5 5 7 11 12 14 14 14 16 16 16 24 31 37 41 43 43 44 45 45 46 46 47 48 48 48 47 47 47 47 48 48 47 46 45 44 44 44 44 44 44 44
11 10 9 9 9 9 10 9 9 8 4 4 6 7 6 5 4 4 5 5 5 5 5 8 10 12 15 16 15 15 15 20 30 35 38 41 43 45 47 46 47 47 47 48 49 49 48 46 46 46 47 48 48 48 47 46 45 44 45 45 45 45 44
8 8 10 14 14 12 11 9 11 10 6 4 6 7 7 7 6 5 5 4 6 5 5 8 10 11 14 15 14 13 13 21 30 36 42 46 47 48 49 48 48 47 46 46 48 49 47 45 46 46 47 49 49 49 48 47 46 46 46 47 46 46 45
8 8 12 19 18 16 13 11 11 10 7 6 5 5 5 6 6 6 5 5 6 6 6 7 7 9 13 15 14 11 15 24 29 31 39 47 49 50 50 49 48 46 45 45 45 47 47 46 46 46 47 49 50 50 49 48 48 47 47 47 47 46 45
9 11 9 17 20 17 12 11 11 10 9 8 6 5 3 4 6 5 5 6 7 5 6 7 7 7 9 15 20 17 17 25 29 29 35 42 44 46 47 46 45 44 43 42 42 44 47 47 46 46 47 48 49 49 49 49 49 48 47 47 47 46 46
7 9 7 10 17 15 9 8 11 13 14 12 9 7 3 4 8 8 5 5 6 6 6 7 7 6 6 9 19 22 18 22 29 30 33 43 46 45 44 42 41 40 38 40 42 43 45 47 47 47 47 47 47 48 49 48 48 48 47 46 46 46 47
9 9 7 5 9 11 8 8 12 16 18 16 11 6 5 6 8 10 8 6 5 6 11 12 9 6 6 4 12 21 21 24 32 30 32 45 49 44 40 38 37 37 37 41 44 44 44 46 47 47 47 46 46 47 47 47 47 47 47 46 46 46 47
9 8 7 4 4 8 12 13 15 15 16 18 12 6 7 6 4 6 9 9 8 6 8 13 10 7 8 5 6 14 15 19 26 23 24 41 47 41 40 40 38 39 41 43 43 43 44 45 46 47 46 46 46 46 46 46 46 45 46 46 46 46 47
13 9 7 8 9 9 13 17 18 15 15 16 14 11 11 7 4 6 8 7 10 11 10 11 10 7 9 7 6 10 11 16 23 21 22 36 42 40 42 43 43 44 43 42 42 43 44 45 46 46 46 46 46 46 46 45 45 45 45 45 46 46 47
19 15 12 12 13 12 12 16 18 17 17 17 15 14 13 9 6 9 8 5 7 10 11 11 8 7 8 8 12 16 13 15 21 22 27 37 39 39 42 43 44 44 42 41 42 42 43 44 46 46 45 45 45 45 46 46 46 45 44 45 46 46 47
18 19 18 17 16 14 12 13 16 18 19 20 18 14 11 11 10 10 10 10 9 8 8 8 8 9 7 5 10 14 13 20 24 22 25 31 33 35 39 41 41 41 40 38 37 37 39 41 44 45 45 45 46 47 46 46 46 45 44 45 46 47 48
11 17 20 20 19 17 14 12 13 17 19 20 19 16 12 10 9 9 10 10 10 9 7 7 7 7 5 4 5 5 7 21 31 27 24 28 31 32 35 37 39 40 41 38 34 33 36 38 40 43 45 45 47 48 47 47 47 45 45 46 47 48 49
5 10 17 21 20 17 17 18 16 16 16 14 13 14 14 12 10 8 7 7 8 8 7 7 6 5 6 6 6 6 7 14 25 28 28 32 35 36 36 37 40 42 42 39 35 34 36 37 39 40 43 46 48 48 48 48 47 46 46 47 49 50 50
3 4 7 13 15 14 16 18 16 11 9 11 11 11 13 16 13 8 6 7 7 5 6 7 8 7 6 7 7 8 10 14 21 26 27 30 34 39 41 40 42 44 42 40 39 39 39 40 40 40 43 47 49 50 50 49 47 47 47 48 50 51 51
3 4 5 6 8 11 11 10 11 11 8 9 10 8 9 12 11 10 9 7 5 4 6 8 8 9 12 13 12 13 14 15 20 24 25 26 27 32 39 39 38 39 40 41 40 40 40 39 40 41 42 46 49 50 50 49 48 48 48 48 50 52 52
3 4 4 6 7 8 6 5 9 11 10 8 8 9 9 7 6 10 11 8 7 7 6 7 8 8 14 16 13 14 18 19 19 21 23 26 25 24 28 34 38 38 40 43 43 41 38 37 40 42 42 44 47 49 49 49 49 50 50 49 50 52 52
4 3 4 6 4 4 5 3 4 3 3 4 4 5 6 5 4 1 1 1 1 1 2 2 3 6 7 9 9 9 12 13 14 16 19 22 23 19 18 25 35 38 39 42 43 40 36 36 40 42 41 42 46 48 48 50 50 50 50 51 51 51 52
5 5 4 4 3 4 6 5 1 2 2 1 2 1 3 5 7 7 5 6 7 7 7 9 13 15 12 5 8 11 13 13 11 11 13 14 15 15 15 19 27 33 36 38 39 38 37 38 40 40 39 41 44 46 46 48 50 50 51 52 52 51 52
2 4 4 4 4 5 5 2 2 3 3 4 7 4 2 5 6 8 7 7 8 8 7 10 13 13 9 4 7 14 17 20 22 21 19 18 19 20 20 20 22 28 35 37 38 38 39 40 40 38 38 40 43 44 46 47 49 50 50 52 54 52 51
1 2 5 5 5 4 3 2 1 4 7 6 6 5 4 5 4 8 10 9 9 8 7 9 11 10 6 3 8 19 22 20 24 29 31 25 21 21 20 18 18 21 30 38 40 40 40 41 40 37 37 40 43 44 46 48 49 50 50 52 55 54 52
2 2 3 3 2 2 1 1 1 7 10 8 4 1 3 4 5 10 12 11 10 10 10 11 9 7 5 4 11 21 21 19 21 22 32 31 21 18 20 19 15 14 24 36 42 42 39 38 40 38 37 40 42 43 46 49 49 51 52 51 53 55 53
2 3 1 2 1 1 2 3 5 5 8 7 3 5 5 2 7 14 17 14 13 15 15 12 8 7 9 9 13 18 15 12 15 13 17 22 20 18 19 20 16 13 19 32 40 41 37 37 40 40 39 42 43 41 44 49 52 53 53 51 52 52 52
2 3 2 2 2 1 0 4 10 10 5 3 3 3 4 7 11 17 20 18 17 18 17 14 12 11 15 14 13 16 16 12 9 8 9 9 9 11 12 17 18 14 17 29 38 39 38 41 44 43 41 43 44 42 45 49 51 52 52 51 51 51 51
2 2 3 2 1 3 1 2 6 6 2 4 3 2 10 14 16 17 20 20 19 18 17 17 17 16 18 19 16 14 14 14 12 9 8 8 8 8 8 7 11 11 17 32 42 43 43 44 45 44 44 46 44 44 48 49 49 50 50 49 50 50 50
3 2 1 1 4 11 7 3 2 1 2 2 4 8 11 14 17 18 21 22 21 19 18 19 20 19 20 20 17 15 13 12 13 13 10 7 5 8 11 8 4 6 13 24 33 38 41 45 47 44 44 47 47 46 47 48 48 48 48 48 49 49 50
1 3 4 5 14 25 15 9 15 10 10 13 16 17 16 17 19 21 22 22 22 21 20 20 21 21 20 19 17 17 15 13 12 12 11 9 7 6 6 6 5 5 9 15 19 22 24 30 41 48 45 43 46 48 47 47 48 48 47 49 50 49 48
2 4 4 5 15 29 25 4 19 18 17 18 22 24 23 22 25 26 25 25 25 24 22 22 23 20 17 19 20 19 16 14 14 12 9 7 6 4 1 2 4 6 9 15 20 21 17 17 22 36 46 45 44 47 47 48 48 48 49 50 49 48 46
4 3 4 8 12 27 28 8 14 22 25 24 26 28 27 26 29 30 28 28 28 28 27 27 27 24 21 21 24 23 21 18 17 15 12 8 5 4 4 3 6 10 11 14 17 19 21 21 20 17 31 43 47 48 48 49 49 50 51 51 48 48 47
3 2 3 8 14 23 24 22 16 18 26 29 27 28 29 29 30 30 29 29 29 29 28 26 27 29 28 27 27 27 26 24 21 17 13 9 4 3 5 6 9 12 13 13 13 13 18 23 20 12 10 23 38 44 46 49 50 50 51 51 50 48 46
4 3 2 7 12 15 20 28 22 15 22 29 29 28 30 31 32 31 31 31 31 30 28 26 27 29 29 28 28 28 28 28 25 20 16 12 6 2 3 4 5 7 6 5 9 12 14 19 25 19 7 8 23 34 39 45 49 48 47 47 45 42 38
2 1 3 5 4 6 10 18 20 16 18 26 30 30 30 30 30 31 32 32 31 31 29 28 29 30 29 28 29 30 29 29 27 24 21 19 15 11 8 7 7 5 1 4 8 13 15 15 22 25 14 12 22 33 36 40 44 44 39 36 36 36 36
5 7 9 6 1 2 8 15 17 15 16 23 28 29 30 29 28 29 31 32 31 31 30 29 29 29 29 29 30 32 31 29 28 27 25 23 22 21 17 13 11 10 4 3 7 11 15 15 18 23 19 18 23 32 33 32 32 29 25 27 33 37 38
9 13 13 6 2 4 7 13 17 16 16 22 25 25 27 29 28 28 29 30 29 29 29 29 28 27 27 27 29 31 31 30 29 29 28 24 20 22 24 20 17 16 11 1 6 10 14 14 15 18 19 16 18 23 23 21 20 20 22 28 36 38 38
12 16 11 7 9 9 9 12 16 16 16 19 22 22 24 25 24 24 26 27 26 26 26 27 27 26 26 25 25 26 27 28 28 29 30 28 23 22 24 22 21 21 18 8 6 11 14 14 14 16 17 16 17 20 21 23 27 29 31 35 39 38 37
Wind_Direction
222 207 185 199 219 220 181 196 219 224 199 204 234 237 248 249 244 232 213 232 216 216 228 191 184 188 187 186 187 197 199 189 190 193 194 194 195 197 200 200 201 204 206 205 204 205 204 204 205 206 205 204 205 208 211 212 213 216 218 217 217 216 216
217 219 201 200 214 214 188 198 211 202 202 229 222 226 240 234 242 229 209 237 223 201 241 211 188 187 189 193 192 200 201 183 181 187 191 193 194 196 199 202 204 205 205 206 204 204 205 206 206 207 206 205 205 208 211 212 212 214 217 218 218 217 216
204 213 215 208 211 213 219 230 184 159 208 224 207 217 213 207 237 245 229 243 220 190 218 200 187 181 179 187 192 202 206 181 175 181 186 189 192 195 198 202 206 208 208 208 206 204 205 206 207 208 207 206 206 208 211 213 215 215 217 219 218 218 218
184 193 213 208 198 204 220 245 235 205 208 200 200 222 218 197 221 230 234 246 231 209 208 188 186 177 175 185 190 201 207 188 177 177 181 186 188 192 198 201 206 210 212 211 209 207 206 205 206 207 206 205 205 207 210 213 215 214 215 218 218 217 217
188 188 201 193 183 187 203 221 227 227 223 188 191 210 216 204 198 201 218 236 248 234 196 191 199 188 185 191 189 194 199 187 181 178 180 187 189 193 197 200 206 212 214 213 211 209 207 206 206 206 206 206 206 206 208 210 213 214 214 216 218 217 217
215 200 187 183 185 189 194 206 218 224 221 199 199 211 215 211 208 208 213 239 257 245 204 200 204 197 198 196 185 189 188 181 184 183 183 188 191 194 197 199 205 210 211 212 212 209 205 204 205 206 205 205 205 205 207 209 211 214 214 215 217 217 216
253 231 190 181 184 191 196 204 214 221 219 207 209 217 209 212 220 215 218 254 261 248 232 220 206 201 202 189 174 180 188 185 189 190 188 190 194 195 197 199 202 207 208 208 207 204 202 201 203 204 203 204 205 205 206 208 210 214 216 216 216 217 217
274 269 222 184 181 188 200 204 203 213 222 217 222 226 195 195 213 195 195 237 244 242 249 247 225 198 185 180 177 180 188 192 197 198 190 190 194 195 195 197 200 204 206 203 200 199 200 201 202 202 202 203 203 204 205 208 210 214 216 216 215 215 216
251 265 251 195 184 187 201 203 195 204 214 217 228 234 207 204 216 198 188 233 235 215 227 256 252 204 167 174 183 184 183 187 200 206 192 186 192 196 196 197 197 199 201 199 198 200 201 201 201 202 202 202 202 203 205 207 210 213 215 215 214 215 216
213 227 234 202 183 184 197 205 196 198 206 212 221 225 214 223 225 211 206 234 249 208 201 223 245 220 194 193 187 193 196 191 197 203 189 183 189 194 193 193 194 196 200 200 199 200 202 201 200 202 202 201 202 203 204 207 209 212 214 214 213 214 215
206 223 232 237 205 187 191 201 203 201 202 208 211 216 224 215 206 223 223 225 244 248 214 216 226 212 207 223 185 184 192 190 194 200 185 181 187 190 188 188 190 194 199 201 200 201 204 203 202 202 202 201 201 202 203 205 208 210 212 213 212 214 215
210 221 237 243 242 221 196 191 200 207 207 209 208 214 226 211 176 245 246 217 226 248 249 237 234 212 204 212 179 171 170 167 179 190 186 181 184 186 185 185 188 192 195 198 199 201 204 204 202 202 203 202 201 201 202 203 206 209 211 211 211 213 215
213 221 236 239 240 245 221 191 193 202 208 217 219 218 220 209 206 241 239 201 211 238 246 245 238 222 220 208 184 185 177 151 158 172 175 176 179 181 182 184 186 190 194 197 198 200 202 203 201 201 202 202 201 201 202 203 205 208 210 210 211 212 214
208 215 231 242 243 249 241 208 194 196 204 215 223 230 226 213 219 234 228 219 224 232 242 244 221 206 216 198 174 182 166 141 147 159 164 168 175 178 181 185 188 192 196 198 200 203 205 205 204 203 204 204 203 203 203 203 205 206 208 209 210 211 213
203 206 217 233 244 251 257 244 212 200 204 208 212 224 233 231 232 231 224 230 237 232 232 244 229 198 177 132 140 181 167 146 149 156 163 168 174 180 184 187 190 195 199 200 203 207 210 212 211 209 208 206 205 204 203 204 205 205 207 209 210 211 213
217 213 209 216 231 248 260 258 239 214 205 206 207 209 214 223 233 233 224 226 240 240 228 238 250 216 177 156 152 178 198 171 161 160 163 169 175 180 187 191 195 198 200 201 207 212 215 216 216 215 212 208 205 204 204 205 205 204 206 209 210 211 213
221 245 228 216 216 230 244 247 247 237 212 208 215 207 202 209 215 229 236 220 222 219 192 214 251 246 206 189 185 192 202 199 192 181 172 173 179 181 185 193 199 200 201 203 209 214 217 218 218 217 214 209 207 207 207 206 204 203 205 209 211 211 212
182 213 257 257 226 224 232 229 233 248 244 226 228 228 216 208 206 216 221 212 218 210 180 196 226 244 240 232 227 234 235 220 209 204 200 201 200 193 191 197 203 202 202 205 208 213 217 219 218 215 212 212 211 209 207 205 203 203 205 209 211 211 212
140 168 213 246 240 239 246 204 205 231 246 247 253 260 254 246 236 227 216 207 225 237 231 218 212 231 250 250 239 232 234 230 216 209 213 219 222 215 204 204 208 209 206 207 208 211 215 217 216 212 211 213 212 209 205 203 203 203 204 208 212 212 212
146 145 195 223 246 305 296 227 183 209 257 262 277 281 283 319 1 289 216 16 311 311 56 56 19 354 308 270 251 223 219 228 218 204 207 214 220 226 222 212 209 209 210 210 209 209 210 213 214 211 210 212 210 207 205 203 203 203 203 207 212 213 213
168 172 212 251 293 307 275 251 151 52 17 68 116 206 300 8 52 71 63 35 29 38 46 46 34 20 9 335 278 256 240 237 232 219 219 225 233 248 256 239 219 210 214 218 215 212 210 209 210 209 209 210 207 206 205 204 203 204 204 206 211 214 214
164 166 200 250 256 239 234 258 12 23 36 81 109 114 353 5 50 71 77 62 49 43 25 26 38 36 24 357 306 298 279 260 258 259 257 261 266 269 274 269 243 220 216 219 218 215 210 207 207 207 207 207 205 204 205 204 203 204 205 207 211 214 215
48 168 198 217 236 226 181 169 135 60 58 61 79 71 352 327 18 58 75 71 53 49 36 30 45 48 30 293 316 340 333 306 287 273 262 262 260 253 254 263 258 234 219 214 214 213 210 206 205 205 205 205 204 203 204 205 204 204 205 207 210 214 216
103 120 215 224 229 246 244 229 150 102 91 76 69 101 265 291 7 52 68 70 57 50 46 47 58 51 23 321 331 351 351 342 335 299 266 259 251 235 232 238 250 248 225 215 212 211 212 212 210 207 204 202 202 203 204 204 204 204 205 208 210 212 213
68 87 261 242 162 249 300 347 2 55 92 91 119 199 218 301 30 55 63 63 56 54 53 56 67 51 25 0 349 2 8 1 360 336 279 260 244 232 230 230 239 250 233 220 215 216 224 229 219 208 202 200 201 203 203 203 205 206 206 206 208 209 208
353 60 14 336 350 306 87 41 14 14 60 120 193 183 110 62 54 59 62 61 57 58 58 58 63 54 36 22 10 19 34 39 23 359 342 323 275 254 248 242 247 257 246 233 225 223 229 231 219 206 199 199 202 203 201 202 204 205 205 204 205 205 203
318 41 46 68 333 299 266 78 20 18 122 215 258 78 73 64 61 60 58 58 57 60 59 53 54 53 42 35 31 28 34 42 42 36 28 13 356 359 359 295 267 272 254 237 226 220 220 217 210 204 201 201 202 203 202 202 202 203 202 201 200 199 196
357 13 21 75 323 312 308 150 141 9 112 78 59 86 78 58 57 61 59 55 52 57 61 56 54 54 46 41 40 35 30 27 29 39 51 46 29 31 30 16 330 284 252 230 216 211 211 210 207 204 203 202 202 202 201 200 198 198 197 195 193 192 188
312 252 272 317 324 318 323 96 103 80 69 73 77 85 77 58 58 64 64 60 57 60 65 60 55 55 51 45 44 41 37 28 20 26 37 41 53 68 53 30 357 293 254 236 224 215 213 217 213 208 206 205 202 200 200 198 196 195 191 188 186 183 180
322 256 274 349 338 318 313 68 103 89 78 81 83 83 75 68 71 72 70 68 66 66 69 64 58 55 52 47 45 42 42 38 29 26 25 23 35 47 37 7 343 308 258 242 236 226 234 266 247 215 208 207 202 198 196 195 194 191 185 179 176 174 172
346 311 345 13 336 311 311 334 102 98 90 87 86 85 81 77 77 76 74 76 74 70 70 68 64 60 56 51 48 45 46 44 37 34 33 25 20 6 339 308 312 311 283 255 243 224 227 263 282 245 213 207 202 197 195 192 190 185 179 173 168 166 166
312 272 358 351 309 311 343 21 53 86 95 92 85 84 85 82 79 77 75 78 79 74 71 70 68 63 57 53 51 49 49 47 44 44 43 33 16 331 321 296 290 303 296 270 253 228 215 226 241 253 225 199 191 187 183 180 178 173 168 164 160 157 159
303 263 345 349 313 318 8 30 28 43 84 93 90 87 85 81 79 77 76 76 77 76 72 70 70 65 57 52 52 52 50 48 45 47 50 48 45 41 8 348 319 312 306 255 218 205 198 203 205 204 193 156 160 158 156 158 158 152 147 147 148 149 153
343 343 337 356 336 310 359 23 22 26 64 87 91 88 84 82 80 80 78 77 77 76 72 69 68 66 60 57 57 55 53 51 46 44 47 49 50 59 69 58 34 20 116 161 169 175 172 175 183 182 163 118 130 137 137 141 144 140 136 138 146 153 159
286 286 293 304 318 319 355 22 33 36 56 77 84 85 85 85 84 83 81 78 75 75 73 69 68 65 61 60 60 57 56 56 53 50 47 44 42 47 58 67 55 43 56 178 188 172 155 145 155 158 141 114 122 131 129 129 136 141 145 151 156 160 164
282 282 278 263 149 81 43 47 52 51 59 72 78 81 84 85 84 83 82 78 74 74 73 70 69 66 62 60 59 57 56 57 57 57 56 54 47 40 42 54 62 53 45 61 204 178 153 137 134 138 136 131 137 142 140 141 152 164 171 169 166 167 169
296 287 261 190 136 106 90 77 67 61 63 73 78 80 84 87 85 82 79 76 73 73 72 69 67 66 64 62 59 56 55 54 56 59 62 64 62 48 37 42 56 59 56 72 141 143 139 140 134 129 137 151 157 154 155 160 163 166 169 171 172 172 170
Height
1387 1391 1391 1389 1402 1413 1410 1411 1416 1410 1404 1416 1434 1439 1431 1434 1449 1442 1428 1427 1417 1409 1407 1397 1395 1400 1399 1401 1404 1405 1409 1411 1415 1420 1423 1427 1431 1434 1437 1439 1442 1445 1447 1449 1452 1454 1457 1459 1462 1465 1468 1471 1475 1478 1481 1484 1488 1491 1494 1497 1499 1502 1505
1386 1381 1386 1386 1387 1396 1407 1414 1410 1402 1406 1413 1425 1441 1441 1444 1456 1442 1425 1428 1425 1423 1421 1404 1398 1403 1402 1401 1401 1402 1404 1406 1410 1414 1418 1422 1426 1429 1432 1434 1437 1440 1442 1445 1447 1450 1452 1455 1458 1461 1465 1469 1472 1475 1478 1481 1484 1487 1490 1493 1496 1499 1502
1385 1377 1387 1394 1386 1385 1396 1402 1398 1404 1422 1425 1425 1437 1445 1450 1456 1444 1430 1427 1423 1422 1418 1406 1402 1404 1402 1400 1400 1401 1401 1402 1405 1409 1412 1416 1420 1424 1427 1429 1432 1435 1437 1440 1442 1445 1448 1451 1454 1458 1462 1466 1469 1473 1475 1478 1480 1483 1487 1490 1493 1496 1498
1380 1380 1388 1400 1398 1390 1390 1395 1395 1400 1411 1418 1421 1425 1430 1440 1449 1446 1439 1432 1422 1411 1403 1400 1401 1398 1396 1398 1398 1398 1397 1397 1400 1404 1408 1411 1415 1418 1421 1424 1427 1430 1432 1435 1437 1441 1444 1447 1450 1454 1459 1463 1466 1470 1473 1475 1478 1481 1484 1487 1490 1492 1495
1379 1385 1385 1390 1397 1396 1396 1401 1403 1403 1403 1405 1412 1415 1413 1423 1437 1441 1442 1439 1422 1399 1388 1391 1393 1390 1388 1389 1390 1391 1390 1391 1394 1398 1402 1407 1410 1413 1415 1418 1422 1424 1427 1431 1434 1437 1440 1443 1447 1451 1454 1458 1461 1466 1469 1472 1475 1478 1480 1483 1486 1489 1492
1383 1381 1372 1373 1381 1385 1392 1397 1398 1401 1405 1408 1418 1421 1410 1408 1420 1425 1432 1438 1419 1390 1379 1381 1382 1383 1381 1379 1381 1384 1384 1386 1390 1392 1395 1400 1403 1406 1409 1412 1416 1419 1422 1426 1429 1433 1437 1440 1442 1445 1449 1452 1456 1460 1463 1467 1471 1473 1476 1478 1482 1485 1489
1379 1370 1361 1362 1368 1372 1380 1387 1388 1392 1399 1405 1418 1425 1414 1408 1412 1411 1419 1431 1415 1384 1373 1374 1375 1375 1374 1373 1377 1380 1380 1383 1386 1389 1391 1393 1396 1400 1403 1407 1411 1415 1418 1421 1425 1429 1434 1436 1437 1440 1444 1447 1450 1454 1458 1462 1465 1468 1471 1474 1478 1482 1485
1374 1365 1358 1355 1358 1367 1378 1381 1381 1387 1392 1395 1402 1408 1406 1409 1412 1411 1420 1430 1412 1382 1370 1371 1370 1369 1369 1370 1371 1374 1377 1379 1382 1386 1388 1391 1395 1398 1401 1405 1408 1412 1415 1420 1424 1427 1430 1432 1434 1436 1439 1443 1447 1451 1454 1457 1460 1463 1467 1471 1475 1479 1482
1393 1383 1376 1370 1364 1366 1375 1377 1377 1380 1383 1388 1394 1397 1400 1407 1407 1406 1418 1425 1406 1381 1371 1371 1369 1368 1368 1369 1369 1371 1374 1376 1380 1382 1384 1388 1393 1396 1400 1404 1407 1410 1414 1418 1422 1424 1426 1429 1431 1433 1435 1439 1443 1447 1450 1453 1456 1460 1464 1468 1472 1475 1478
1405 1398 1389 1380 1371 1368 1371 1372 1373 1375 1377 1384 1392 1397 1405 1410 1403 1399 1408 1411 1396 1378 1372 1372 1371 1370 1369 1368 1368 1370 1372 1374 1376 1378 1380 1384 1388 1392 1397 1401 1405 1408 1412 1416 1418 1421 1424 1426 1428 1430 1432 1436 1439 1443 1447 1451 1454 1457 1461 1465 1468 1471 1474
1386 1384 1376 1366 1364 1369 1372 1372 1371 1373 1374 1377 1385 1395 1402 1402 1401 1401 1398 1396 1393 1384 1376 1374 1372 1370 1370 1368 1368 1370 1371 1373 1374 1375 1379 1382 1385 1389 1393 1397 1402 1406 1410 1412 1415 1418 1420 1423 1426 1428 1429 1432 1436 1440 1444 1448 1451 1454 1457 1462 1465 1468 1470
1367 1367 1364 1358 1359 1365 1368 1368 1370 1371 1371 1373 1380 1388 1389 1388 1399 1406 1393 1386 1393 1388 1378 1376 1374 1370 1369 1367 1366 1368 1370 1372 1373 1374 1377 1381 1385 1388 1390 1394 1399 1402 1406 1408 1410 1414 1416 1420 1423 1426 1428 1430 1432 1436 1440 1444 1447 1450 1454 1458 1461 1465 1467
1359 1359 1360 1357 1357 1360 1360 1362 1366 1367 1369 1372 1376 1378 1377 1380 1393 1397 1387 1385 1390 1384 1375 1373 1371 1368 1366 1364 1363 1363 1367 1370 1371 1372 1375 1378 1382 1386 1389 1393 1396 1399 1402 1405 1407 1411 1413 1417 1420 1423 1426 1428 1430 1433 1436 1439 1443 1446 1449 1454 1457 1461 1463
1356 1356 1357 1356 1356 1359 1358 1357 1358 1361 1365 1367 1369 1371 1371 1374 1380 1381 1379 1384 1383 1376 1371 1367 1363 1363 1362 1361 1361 1361 1363 1366 1369 1372 1376 1378 1381 1385 1388 1391 1394 1396 1399 1401 1404 1407 1410 1414 1417 1420 1423 1425 1427 1429 1432 1435 1438 1442 1446 1449 1452 1456 1458
1355 1351 1353 1355 1356 1358 1359 1357 1354 1355 1359 1362 1365 1368 1369 1372 1376 1374 1375 1382 1379 1368 1362 1360 1359 1360 1361 1362 1363 1363 1364 1366 1367 1371 1376 1379 1382 1386 1388 1391 1393 1395 1397 1399 1401 1404 1406 1409 1412 1415 1418 1420 1423 1425 1428 1431 1434 1438 1442 1445 1447 1450 1453
1360 1350 1350 1354 1353 1357 1362 1359 1354 1353 1356 1360 1362 1363 1364 1368 1373 1374 1376 1381 1377 1365 1358 1358 1358 1358 1361 1363 1363 1364 1367 1369 1370 1371 1374 1377 1380 1383 1386 1389 1390 1392 1394 1396 1398 1400 1403 1405 1408 1411 1413 1416 1419 1421 1423 1426 1429 1434 1438 1440 1442 1445 1448
1361 1352 1351 1352 1357 1369 1368 1354 1348 1352 1354 1355 1356 1356 1356 1357 1362 1371 1375 1373 1367 1359 1357 1359 1359 1358 1359 1361 1361 1363 1366 1369 1371 1371 1372 1375 1377 1379 1382 1385 1387 1388 1389 1392 1395 1397 1399 1402 1404 1405 1408 1411 1414 1416 1418 1422 1426 1431 1434 1435 1438 1441 1444
1361 1355 1351 1357 1370 1379 1363 1341 1339 1347 1349 1352 1355 1355 1353 1351 1352 1357 1360 1358 1356 1355 1357 1359 1359 1357 1355 1355 1356 1359 1362 1365 1368 1368 1369 1372 1374 1376 1378 1380 1382 1384 1385 1388 1392 1394 1397 1399 1400 1402 1404 1406 1409 1411 1415 1419 1422 1426 1429 1431 1433 1436 1439
1356 1353 1356 1376 1387 1372 1348 1335 1335 1337 1340 1345 1350 1351 1349 1349 1350 1350 1351 1352 1352 1352 1353 1354 1355 1354 1353 1352 1353 1356 1359 1361 1363 1365 1366 1368 1371 1373 1374 1376 1377 1380 1382 1385 1388 1391 1394 1397 1398 1400 1401 1403 1405 1409 1412 1415 1418 1421 1424 1427 1429 1431 1434
1352 1357 1367 1381 1377 1355 1340 1337 1334 1334 1340 1345 1350 1356 1354 1350 1350 1351 1352 1352 1350 1350 1351 1351 1352 1353 1352 1352 1353 1354 1357 1359 1360 1363 1365 1366 1368 1370 1371 1373 1374 1376 1379 1382 1384 1387 1390 1393 1395 1396 1397 1399 1402 1405 1408 1411 1413 1416 1419 1422 1424 1426 1429
1348 1360 1368 1366 1360 1356 1351 1344 1336 1336 1342 1346 1351 1362 1361 1352 1349 1351 1352 1353 1352 1351 1351 1350 1350 1351 1352 1355 1355 1354 1356 1357 1359 1361 1363 1364 1367 1368 1370 1372 1373 1375 1378 1379 1381 1383 1385 1388 1390 1392 1393 1395 1398 1401 1404 1407 1410 1412 1415 1417 1419 1421 1424
1347 1357 1368 1368 1371 1371 1358 1345 1337 1333 1337 1340 1343 1356 1363 1355 1348 1348 1351 1354 1354 1353 1353 1351 1349 1351 1358 1364 1360 1355 1355 1356 1356 1358 1360 1362 1365 1366 1368 1370 1370 1372 1374 1376 1379 1380 1381 1383 1386 1387 1389 1391 1393 1397 1400 1402 1405 1408 1410 1412 1414 1416 1419
1353 1359 1369 1373 1373 1366 1351 1343 1338 1334 1337 1337 1340 1359 1370 1359 1348 1347 1349 1354 1356 1355 1355 1354 1352 1358 1369 1371 1362 1355 1356 1355 1353 1352 1355 1357 1360 1363 1365 1367 1367 1368 1370 1372 1374 1375 1376 1378 1381 1383 1385 1387 1388 1391 1393 1397 1400 1402 1404 1406 1409 1411 1414
1357 1362 1368 1365 1361 1355 1346 1340 1339 1338 1337 1338 1354 1379 1379 1359 1349 1348 1348 1352 1356 1355 1356 1357 1359 1367 1374 1372 1364 1357 1356 1355 1353 1351 1351 1353 1355 1357 1360 1363 1364 1365 1367 1369 1370 1371 1372 1374 1375 1377 1380 1382 1383 1384 1387 1391 1394 1396 1398 1400 1403 1406 1409
1359 1364 1369 1364 1357 1351 1343 1340 1339 1338 1340 1350 1371 1383 1371 1354 1351 1351 1348 1351 1354 1355 1357 1360 1364 1369 1370 1367 1363 1359 1356 1356 1355 1354 1354 1353 1353 1354 1356 1358 1360 1362 1364 1365 1366 1367 1368 1370 1371 1371 1373 1375 1377 1377 1380 1384 1387 1389 1392 1395 1398 1401 1404
1361 1364 1370 1371 1364 1349 1340 1341 1341 1341 1352 1367 1372 1365 1356 1354 1354 1351 1350 1352 1353 1354 1357 1360 1364 1367 1366 1364 1362 1359 1358 1358 1357 1357 1357 1355 1354 1353 1353 1353 1355 1357 1359 1360 1360 1361 1363 1365 1366 1367 1368 1369 1370 1371 1373 1376 1380 1384 1387 1389 1392 1395 1398
1369 1371 1377 1383 1377 1356 1341 1345 1348 1350 1360 1366 1360 1353 1354 1356 1354 1352 1353 1353 1353 1355 1357 1358 1361 1363 1363 1363 1362 1360 1360 1359 1358 1358 1357 1355 1354 1353 1352 1353 1353 1353 1354 1354 1354 1355 1357 1359 1361 1362 1363 1363 1364 1365 1366 1370 1374 1379 1383 1385 1387 1390 1394
1385 1386 1382 1379 1374 1359 1346 1347 1353 1355 1356 1355 1353 1353 1356 1355 1354 1354 1354 1354 1355 1356 1356 1358 1360 1360 1361 1363 1362 1361 1360 1359 1358 1357 1355 1354 1354 1353 1352 1353 1353 1353 1353 1353 1352 1353 1354 1356 1357 1357 1357 1357 1358 1359 1362 1366 1371 1374 1378 1381 1383 1386 1390
1391 1389 1380 1372 1369 1365 1357 1349 1349 1353 1354 1354 1354 1355 1355 1356 1356 1355 1354 1356 1357 1356 1357 1358 1360 1361 1363 1364 1363 1362 1360 1358 1357 1356 1354 1352 1352 1351 1351 1353 1354 1355 1354 1354 1354 1354 1354 1357 1357 1355 1353 1353 1353 1355 1359 1364 1366 1369 1372 1376 1379 1382 1387
1386 1381 1377 1375 1375 1377 1369 1355 1348 1350 1354 1355 1355 1354 1355 1357 1356 1355 1357 1359 1358 1359 1359 1360 1361 1364 1366 1366 1365 1363 1360 1358 1357 1356 1354 1353 1351 1350 1351 1351 1353 1356 1356 1355 1354 1354 1357 1362 1361 1357 1353 1351 1350 1352 1356 1360 1362 1364 1368 1371 1375 1380 1385
1389 1385 1380 1378 1381 1384 1375 1360 1351 1350 1352 1356 1356 1356 1357 1358 1357 1358 1359 1359 1360 1362 1362 1362 1365 1367 1367 1367 1366 1364 1361 1360 1358 1356 1355 1354 1352 1352 1352 1352 1353 1356 1356 1355 1354 1356 1361 1365 1364 1361 1357 1352 1350 1350 1353 1356 1359 1361 1364 1368 1373 1378 1383
1389 1387 1384 1382 1385 1385 1374 1362 1357 1355 1354 1356 1358 1359 1359 1359 1359 1360 1361 1361 1362 1363 1364 1366 1367 1366 1367 1368 1366 1365 1364 1362 1360 1359 1357 1355 1353 1352 1352 1352 1354 1356 1356 1355 1354 1355 1357 1359 1361 1364 1361 1354 1349 1348 1349 1352 1356 1358 1361 1366 1370 1376 1382
1387 1385 1385 1384 1386 1384 1375 1368 1368 1366 1360 1357 1358 1360 1360 1360 1361 1363 1364 1364 1365 1365 1367 1368 1366 1366 1367 1368 1367 1366 1365 1363 1362 1361 1359 1357 1355 1353 1352 1353 1354 1356 1357 1357 1356 1354 1353 1352 1354 1360 1364 1360 1351 1346 1348 1350 1353 1357 1363 1367 1373 1382 1389
1391 1389 1389 1388 1388 1388 1382 1376 1376 1376 1370 1362 1359 1359 1360 1362 1365 1366 1367 1368 1368 1367 1368 1368 1367 1367 1369 1369 1369 1368 1366 1365 1364 1363 1362 1361 1359 1356 1354 1353 1355 1357 1359 1358 1357 1355 1353 1352 1352 1358 1367 1368 1358 1352 1355 1358 1359 1365 1372 1377 1382 1390 1396
1394 1390 1389 1389 1389 1389 1386 1381 1379 1380 1376 1370 1364 1363 1364 1366 1367 1368 1368 1369 1370 1369 1370 1370 1370 1370 1371 1371 1370 1369 1368 1367 1365 1363 1363 1364 1364 1361 1356 1353 1356 1360 1360 1360 1360 1358 1356 1358 1358 1361 1367 1369 1364 1361 1366 1371 1373 1376 1381 1385 1390 1395 1398
1390 1388 1388 1389 1389 1389 1389 1385 1380 1379 1378 1375 1371 1369 1369 1368 1369 1370 1370 1371 1372 1372 1372 1373 1372 1373 1373 1373 1372 1371 1370 1369 1367 1365 1364 1363 1363 1363 1362 1359 1360 1361 1360 1362 1363 1362 1361 1365 1366 1366 1368 1370 1370 1369 1371 1376 1381 1382 1383 1389 1396 1398 1400
1387 1385 1386 1388 1389 1390 1391 1386 1381 1380 1381 1379 1376 1375 1374 1372 1372 1372 1372 1374 1375 1375 1375 1375 1375 1375 1374 1374 1374 1374 1373 1373 1372 1370 1367 1365 1364 1366 1368 1367 1366 1364 1365 1367 1367 1365 1366 1368 1370 1370 1371 1371 1371 1372 1373 1377 1382 1384 1386 1391 1397 1399 1401